Weather History for Fort Myers, FL

Change the Weather History Date:

Tuesday, November 27, 2012

  Actual Average Record
Temperature  
Mean Temperature 70 °F 70 °F  
Max Temperature 82 °F 80 °F 90 °F (1948)
Min Temperature 58 °F 60 °F 39 °F (1903)
Degree Days  
Heating Degree Days 0 1  
Month to date heating degree days 12 12  
Since 1 July heating degree days 15 14  
Cooling Degree Days 5 6  
Month to date cooling degree days 100 200  
Year to date cooling degree days 4200 3848  
Growing Degree Days 20 (Base 50)    
Moisture  
Dew Point 62 °F    
Average Humidity 78    
Maximum Humidity 93    
Minimum Humidity 51    
Precipitation  
Precipitation 0.00 in 0.04 in 1.06 in (1921)
Month to date precipitation 0.66 1.80  
Year to date precipitation 47.43 54.06  
Sea Level Pressure  
Sea Level Pressure 30.15 in    
Wind  
Wind Speed 3 mph (South)    
Max Wind Speed 13 mph    
Max Gust Speed 18 mph    
Visibility 9 miles    
Events      
T = Trace of Precipitation, MM = Missing Value Source: NWS Daily Summary

Daily Weather History Graph

Daily Weather History Graph

Search for Another Location

Airport:

Trip Planner

Search our weather history database for the weather conditions in past years. The results will help you decide how hot, cold, wet, or windy it might be!

Date:

Astronomy

Nov. 27, 2012 Rise Set
Actual Time 6:56 AM EST 5:34 PM EST
Civil Twilight 6:31 AM EST 5:59 PM EST
Nautical Twilight 6:02 AM EST 6:27 PM EST
Astronomical Twilight 5:34 AM EST 6:55 PM EST
Moon 5:03 PM EST (11/27) 6:02 AM EST (11/27)
Length of Visible Light 11h 28m
Length of Day
10h 38m
Waxing Gibbous, 99% of the Moon is Illuminated
Nov 27
Waxing Gibbous
Nov 28
Full
Dec 6
Last Quarter
Dec 13
New
Dec 20
First Quarter

Hourly Weather History & Observations

Time (EST) Temp. Heat Index Dew Point Humidity Pressure Visibility Wind Dir Wind Speed Gust Speed Precip Events Conditions
12:53 AM 62.1 °F - 57.9 °F 86% 30.18 in 10.0 mi Calm Calm - N/A   Clear
1:53 AM 63.0 °F - 59.0 °F 87% 30.17 in 10.0 mi Calm Calm - N/A   Clear
2:53 AM 60.1 °F - 57.9 °F 93% 30.16 in 10.0 mi Calm Calm - N/A   Clear
3:53 AM 60.1 °F - 57.0 °F 90% 30.15 in 8.0 mi Calm Calm - N/A   Clear
4:53 AM 60.1 °F - 57.9 °F 93% 30.14 in 6.0 mi East 3.5 mph - N/A   Clear
5:53 AM 59.0 °F - 57.0 °F 93% 30.15 in 6.0 mi Calm Calm - N/A   Clear
6:53 AM 60.1 °F - 57.9 °F 93% 30.16 in 6.0 mi Calm Calm - N/A   Scattered Clouds
7:53 AM 62.1 °F - 60.1 °F 93% 30.17 in 7.0 mi Calm Calm - N/A   Partly Cloudy
8:53 AM 68.0 °F - 62.1 °F 81% 30.18 in 10.0 mi ESE 6.9 mph - N/A   Clear
9:53 AM 73.9 °F - 63.0 °F 68% 30.19 in 10.0 mi SE 8.1 mph - N/A   Clear
10:53 AM 75.9 °F - 64.0 °F 67% 30.19 in 10.0 mi SE 5.8 mph - N/A   Partly Cloudy
11:53 AM 79.0 °F - 64.0 °F 60% 30.17 in 10.0 mi Variable 4.6 mph - N/A   Scattered Clouds
12:53 PM 81.0 °F 82.2 °F 63.0 °F 54% 30.14 in 10.0 mi SSE 6.9 mph - N/A   Partly Cloudy
1:53 PM 81.0 °F 81.9 °F 62.1 °F 52% 30.11 in 10.0 mi SW 10.4 mph 18.4 mph N/A   Partly Cloudy
2:53 PM 81.0 °F 81.6 °F 60.1 °F 49% 30.10 in 10.0 mi SSW 10.4 mph - N/A   Clear
3:53 PM 79.0 °F - 63.0 °F 58% 30.11 in 10.0 mi SW 10.4 mph - N/A   Clear
4:53 PM 77.0 °F - 64.0 °F 64% 30.12 in 10.0 mi SW 6.9 mph - N/A   Partly Cloudy
5:53 PM 73.9 °F - 64.0 °F 71% 30.12 in 10.0 mi SSW 5.8 mph - N/A   Clear
6:53 PM 71.1 °F - 64.9 °F 81% 30.14 in 10.0 mi Calm Calm - N/A   Partly Cloudy
7:53 PM 70.0 °F - 64.9 °F 84% 30.14 in 10.0 mi Calm Calm - N/A   Clear
8:53 PM 69.1 °F - 64.9 °F 87% 30.15 in 10.0 mi Calm Calm - N/A   Clear
9:53 PM 69.1 °F - 66.0 °F 90% 30.13 in 10.0 mi Calm Calm - N/A   Overcast
10:53 PM 66.9 °F - 64.0 °F 90% 30.13 in 10.0 mi Calm Calm - N/A   Mostly Cloudy
11:53 PM 66.9 °F - 64.0 °F 90% 30.14 in 10.0 mi Calm Calm - N/A   Mostly Cloudy